• Join FlightAware (Why Join?)
  • Login
  • US Flag GB Flag 
02:49 EDT


 

Airport Tracker/Info


-or-


 

Live Flight TrackerFlight Track Log ✈ EJA727 ✈ 12-May-2013 ✈ KDAL - KAUS

Flight Track Log - Related Links

Times and Time Zones

All times are in EDT time to prevent confusion due to time zone crossing. See the EJA727 flight status page for this flight to view local times or setup timezone preferences in your user account.

Time Position Orientation Groundspeed Altitude Reporting Facility
EDT Latitude Longitude Course Direction KTS MPH feet Rate Location/Type
14:31 32.8333 -96.8333 140° Southeast 181 208 1,500  Level Dallas / Fort Worth TRACON
14:32 32.8167 -96.8167 140° Southeast 193 222 3,400 2,040 Climbing Dallas / Fort Worth TRACON
14:34 32.7042 -96.7294 147° Southeast 298 343 6,400 1,980 Climbing Fort Worth Center
14:35 32.6228 -96.7375 185° South 296 341 9,400 1,800 Climbing Fort Worth Center
14:36 32.5458 -96.8072 217° Southwest 296 341 10,000 3,300 Climbing Fort Worth Center
14:37 32.4628 -96.8839 218° Southwest 359 413 16,000 2,820 Climbing Fort Worth Center
14:38 32.3919 -96.9558 221° Southwest 377 434 15,800  Descending Fort Worth Center
14:39 32.2983 -97.0447 219° Southwest 388 447 16,000 60 Climbing Fort Worth Center
14:40 32.1878 -97.0722 192° South 388 447 16,000  Level Fort Worth Center
14:41 32.0708 -97.0825 184° South 410 472 16,000  Level Fort Worth Center
14:42 31.9542 -97.1000 187° South 415 478 16,000  Level Fort Worth Center
14:43 31.8433 -97.1150 187° South 410 472 16,000  Level Fort Worth Center
14:44 31.7308 -97.1350 189° South 410 472 16,000  Level Fort Worth Center
14:45 31.5400 -97.1622 187° South 407 468 16,000  Level Houston Center
14:46 31.4286 -97.1828 189° South 402 463 16,000  Level Houston Center
14:47 31.3206 -97.2147 194° South 396 456 16,000  Level Houston Center
14:49 31.2111 -97.2469 194° South 399 459 16,000  Level Houston Center
14:50 31.1022 -97.2797 194° South 401 461 16,000  Level Houston Center
14:51 30.9747 -97.3172 194° South 405 466 16,000 -960 Level Houston Center
14:52 30.8683 -97.3478 194° South 407 468 14,100 -1,440 Descending Houston Center
14:53 30.7661 -97.3811 196° South 384 442 13,100 -720 Descending Houston Center
14:54 30.6664 -97.4203 199° South 376 433 12,700 -1,080 Descending Houston Center
14:55 30.5561 -97.4622 198° South 354 407 10,900 -1,680 Descending Houston Center
14:56 30.4747 -97.4939 199° South 315 362 9,300 -1,860 Descending Houston Center
14:57 30.3925 -97.5133 192° South 302 348 7,100 -2,040 Descending Houston Center
14:58 30.3100 -97.5233 186° South 298 343 5,100 -1,860 Descending Houston Center
14:59 30.2328 -97.5336 187° South 283 326 3,300 -1,500 Descending Houston Center
15:00 30.1628 -97.5556 195° South 263 303 2,000 -660 Descending Houston Center
15:01 30.1206 -97.5969 220° Southwest 233 268 2,000 -180 Level Houston Center
15:02 30.1258 -97.6478 277° West 189 217 1,700 -480 Descending Houston Center
15:03 30.1697 -97.6611 345° North 177 204 1,100 -600 Descending Houston Center
15:05 30.1833 -97.6667 221° Southwest  Level FlightAware Approximate